Regional Weather Roundup
Issued by NWS

Home | Current Version | Previous Version | Text Only | Print | Product List | Glossary Off
Versions: 1 2 3 4 5 6 7 8 9 10 11 12 13 14 15 16 17 18 19 20 21 22 23 24 25 26 27 28 29 30 31 32 33 34 35 36 37 38 39 40 41 42 43 44 45 46 47 48 49 50

000
ASUS45 KCYS 291210
RWRWY

WYOMING REGIONAL WEATHER ROUNDUP
NATIONAL WEATHER SERVICE CHEYENNE WY
600 AM MDT FRI JUL 29 2016

NOTE:  "FAIR" INDICATES FEW OR NO CLOUDS BELOW 12,000 FEET
WITH NO SIGNIFICANT WEATHER AND/OR OBSTRUCTIONS TO VISIBILITY.

WYZ001-291300-
YELLOWSTONE NATIONAL PARK

CITY           SKY/WX    TMP DP  RH WIND       PRES   REMARKS
LK YELLOWSTONE   N/A     41  38  89 NW3       30.35R
6HR MIN TEMP:  41; 6HR MAX TEMP:  48;

W YELLOWSTONE  NOT AVBL

$$
WYZ002>013-054>058-071-098>099-291300-
NORTHERN WYOMING

CITY           SKY/WX    TMP DP  RH WIND       PRES   REMARKS
JACKSON        FAIR      46  39  76 CALM      30.26R
CODY           FAIR      57  46  67 CALM      30.17S
GREYBULL       FAIR      61  46  57 CALM      30.10S
6HR MIN TEMP:  60; 6HR MAX TEMP:  74;

WORLAND        FAIR      57  49  74 S3        30.12R
6HR MIN TEMP:  56; 6HR MAX TEMP:  69;

SHERIDAN       FAIR      53  48  83 CALM      30.12R
6HR MIN TEMP:  51; 6HR MAX TEMP:  62;

BUFFALO        FAIR      60  43  53 W7        30.16S
6HR MIN TEMP:  55; 6HR MAX TEMP:  63;

GILLETTE       FAIR      55  54  96 S6        30.14S
6HR MIN TEMP:  52; 6HR MAX TEMP:  59;

HULETT         FAIR      55  52  88 CALM      30.17R
NEWCASTLE      FAIR      55  54  94 CALM      30.17F

$$
WYZ014>020-022>026-101>103-291300-
CENTRAL WYOMING

CITY           SKY/WX    TMP DP  RH WIND       PRES   REMARKS
BIG PINEY      FAIR      48  34  58 CALM      30.31F
6HR MIN TEMP:  46; 6HR MAX TEMP:  58;

PINEDALE       FAIR      41  34  75 NW5       30.32S
DUBOIS         FAIR      46  41  81 W10       30.32S HAZE
LANDER         FAIR      56  45  66 SE3       30.20S
6HR MIN TEMP:  55; 6HR MAX TEMP:  67;

RIVERTON       FAIR      56  49  77 NW7       30.21S
6HR MIN TEMP:  55; 6HR MAX TEMP:  68;

CASPER         FAIR      50  48  93 W3        30.19F
6HR MIN TEMP:  49; 6HR MAX TEMP:  64;

DOUGLAS          N/A    N/A N/A N/A MISG      30.19R

$$
WYZ021-027>030-104>119-291300-
SOUTHERN WYOMING

CITY           SKY/WX    TMP DP  RH WIND       PRES   REMARKS
EVANSTON       FAIR      59  31  34 SE10      30.28S
6HR MIN TEMP:  55; 6HR MAX TEMP:  71;

KEMMERER         N/A     52  37  58 N10       30.31S
FORT BRIDGER   FAIR      53  34  47 W6        30.32R
ROCK SPRINGS   FAIR      56  45  66 E7        30.28R
6HR MIN TEMP:  56; 6HR MAX TEMP:  66;

DIXON          FAIR      50  42  75 CALM      30.28R
RAWLINS        FAIR      54  50  86 NE7       30.28R
6HR MIN TEMP:  54; 6HR MAX TEMP:  64;

SARATOGA       PTSUNNY   46  45  93 CALM      30.29R
LARAMIE        FAIR      53  51  93 S9        30.29S
6HR MIN TEMP:  52; 6HR MAX TEMP:  58;

CHEYENNE       FAIR      57  56  96 SW9       30.24S
6HR MIN TEMP:  57; 6HR MAX TEMP:  61;

TORRINGTON     FAIR      57  56  96 E7        30.14F
6HR MIN TEMP:  56; 6HR MAX TEMP:  65;

PINE BLUFFS    FAIR      54  54 100 SW3       30.21S

$$



USA.gov is the U.S. government's official web portal to all federal, state and local government web resources and services.